{"data":{"norad_id":57062,"epoch":"2026-05-25T00:27:18.671040Z","epoch_age_seconds":77415,"freshness":"FRESH","line1":"1 57062U 23088Q   26145.01896610  .00000092  00000+0  12880-4 0  9993","line2":"2 57062  43.0041  25.0577 0001173 257.3040 102.7680 15.27573970162170","mean_motion":15.2757397,"eccentricity":0.0001173,"inclination_deg":43.0041,"raan_deg":25.0577,"arg_perigee_deg":257.304,"mean_anomaly_deg":102.768,"bstar":1.288e-5,"rev_number":16217,"period_min":94.267120825579,"perigee_km":482.26233284129,"apogee_km":483.87197133537,"semimajor_km":6861.2041520883,"source":"CELESTRAK","updated_at":"2026-05-25T13:38:18.210969Z"}}